Location: Bismarck
(46.7731°N, 100.8200°W)
Time: 04:22:42
(UTC-05:00)

Amateur Radio Satellites - All Passes

Search period start: 23 October 2014 03:52
Search period end: 24 October 2014 03:52
Location: Bismarck, 46.7731°N, 100.8200°W

Satellite Date Start Highest point End Downlink Frequencies (MHz)
Time Altitude Azimuth
AO-Echo 23 Oct 03:54:25 03:59:45 78° 103° (ESE) 04:05:04 ?
JAS-1B 23 Oct 03:55:26 04:01:51 85° 287° (WNW) 04:09:30 435.800 - 435.900 CW/SSB
Uribyol 2 23 Oct 03:58:52 04:04:06 69° 103° (ESE) 04:09:16 436.500 FM
ITAMSAT 1 23 Oct 04:04:22 04:09:37 72° 103° (ESE) 04:14:49 435.822 SSB
PCSat 23 Oct 04:08:08 04:11:03 15° 104° (ESE) 04:13:59 145.825 MHz
Gurwin Techsat 1B 23 Oct 04:12:17 04:17:26 47° 99° (E) 04:22:32 435.225 FM
TMSAT-1 23 Oct 04:24:52 04:29:59 46° 99° (E) 04:35:04 436.925 FM
AO-7 23 Oct 04:27:19 04:32:14 17° 87° (E) 04:37:08 29.400 - 29.500 MHz
RS-15 23 Oct 04:30:59 04:40:19 30° 2° (N) 04:49:51 29.354 - 29.394 USB, Beacon 29.352 USB
Oscar 19 23 Oct 04:37:31 04:41:49 28° 297° (WNW) 04:46:06 437.125 CW, 437.150 USB
OPAL 23 Oct 04:43:04 04:47:12 25° 60° (ENE) 04:51:19 ?
AO-27 23 Oct 04:49:40 04:54:42 48° 292° (WNW) 04:59:41 436.795 MHz FM
Oscar 16 23 Oct 05:24:36 05:26:42 13° 306° (NW) 05:28:48 437.025 USB, Beacon 2401.1428
Sapphire 23 Oct 05:25:38 05:30:56 58° 117° (ESE) 05:36:16 437.095 MHz 1200 baud AX-25 AFSK
AO-Echo 23 Oct 05:34:24 05:37:54 18° 302° (WNW) 05:41:25 ?
Uosat F 23 Oct 05:37:56 05:42:30 33° 96° (E) 05:47:01 435.120 FM
Uribyol 2 23 Oct 05:39:23 05:43:04 20° 301° (WNW) 05:46:43 436.500 FM
ITAMSAT 1 23 Oct 05:44:58 05:48:33 19° 302° (WNW) 05:52:08 435.822 SSB
JAS-1B 23 Oct 05:47:45 05:51:51 18° 304° (NW) 05:56:21 435.800 - 435.900 CW/SSB
PCSat 23 Oct 05:48:16 05:53:41 90° 306° (NW) 05:59:10 145.825 MHz
Gurwin Techsat 1B 23 Oct 05:52:43 05:57:10 28° 297° (WNW) 06:01:35 435.225 FM
JAS-2 23 Oct 06:00:19 06:06:25 25° 88° (E) 06:12:33 435.800 - 435.900 CW/SSB, 435.910 FM
TMSAT-1 23 Oct 06:05:13 06:09:41 28° 297° (WNW) 06:14:08 436.925 FM
AO-7 23 Oct 06:18:02 06:26:24 76° 107° (ESE) 06:34:44 29.400 - 29.500 MHz
OPAL 23 Oct 06:20:46 06:25:48 52° 257° (WSW) 06:30:47 ?
STRAND 1 23 Oct 06:24:30 06:28:26 23° 61° (ENE) 06:32:23 ?
Hamsat 23 Oct 06:30:11 06:32:39 15° 90° (E) 06:35:06 145.90 MHz
RS-15 23 Oct 06:45:31 06:56:08 48° 35° (NE) 07:07:05 29.354 - 29.394 USB, Beacon 29.352 USB
Sapphire 23 Oct 07:09:59 07:14:42 29° 318° (NW) 07:19:27 437.095 MHz 1200 baud AX-25 AFSK
Uosat F 23 Oct 07:16:42 07:21:17 35° 294° (WNW) 07:25:50 435.120 FM
PCSat 23 Oct 07:33:45 07:37:52 21° 324° (NW) 07:42:00 145.825 MHz
JAS-2 23 Oct 07:44:25 07:52:06 81° 287° (WNW) 07:59:58 435.800 - 435.900 CW/SSB, 435.910 FM
STRAND 1 23 Oct 08:02:12 08:07:14 57° 259° (W) 08:12:20 ?
Hamsat 23 Oct 08:04:51 08:08:57 55° 287° (WNW) 08:13:03 145.90 MHz
AO-7 23 Oct 08:11:35 08:18:31 31° 308° (NW) 08:25:27 29.400 - 29.500 MHz
RS-15 23 Oct 08:58:11 09:09:11 69° 241° (WSW) 09:20:39 29.354 - 29.394 USB, Beacon 29.352 USB
Sapphire 23 Oct 08:58:56 09:00:02 11° 342° (NNW) 09:01:07 437.095 MHz 1200 baud AX-25 AFSK
SO-67 23 Oct 09:00:31 09:04:00 85° 284° (WNW) 09:07:26 435.3500 MHz FM
HO-68 23 Oct 09:05:17 09:08:24 13° 84° (E) 09:11:30 435.675 MHz FM
Saudisat 1A 23 Oct 09:05:52 09:10:07 50° 121° (ESE) 09:14:23 436.775 MHz
MaSat-1 23 Oct 09:15:56 09:17:03 12° 44° (NE) 09:18:08 437.345 MHz
JAS-2 23 Oct 09:30:41 09:36:07 22° 306° (NW) 09:41:41 435.800 - 435.900 CW/SSB, 435.910 FM
Oscar 11 23 Oct 10:15:22 10:16:56 12° 88° (E) 10:18:31 145.825 FM, Beacon 2401.500 USB
Saudisat 1A 23 Oct 10:46:08 10:49:55 27° 321° (NW) 10:53:43 436.775 MHz
HO-68 23 Oct 10:50:12 10:57:25 70° 104° (ESE) 11:04:34 435.675 MHz FM
MaSat-1 23 Oct 10:50:29 10:52:59 34° 247° (WSW) 10:55:17 437.345 MHz
ZACube-1 23 Oct 10:59:03 11:01:28 15° 89° (E) 11:03:51 437.345 MHz
UKube-1 23 Oct 11:06:19 11:10:29 41° 99° (E) 11:14:36 145.840 MHz, 145.915 MHz
PCSat 23 Oct 11:08:58 11:09:47 10° 17° (NNE) 11:10:36 145.825 MHz
RS-15 23 Oct 11:13:01 11:19:24 17° 263° (W) 11:25:58 29.354 - 29.394 USB, Beacon 29.352 USB
FUNcube-1 23 Oct 11:43:00 11:47:05 40° 98° (E) 11:51:02 145.950 - 145.970 MHz USB
Oscar 11 23 Oct 11:49:20 11:53:39 75° 285° (WNW) 11:57:57 145.825 FM, Beacon 2401.500 USB
Sapphire 23 Oct 12:27:56 12:32:00 21° 35° (NE) 12:36:02 437.095 MHz 1200 baud AX-25 AFSK
ZACube-1 23 Oct 12:34:03 12:38:18 58° 287° (WNW) 12:42:25 437.345 MHz
HO-68 23 Oct 12:38:39 12:44:35 29° 304° (NW) 12:50:31 435.675 MHz FM
Oscar 19 23 Oct 12:41:25 12:44:01 14° 55° (NE) 12:46:36 437.125 CW, 437.150 USB
UKube-1 23 Oct 12:43:00 12:46:27 23° 297° (WNW) 12:49:53 145.840 MHz, 145.915 MHz
PCSat 23 Oct 12:50:28 12:55:09 28° 41° (NE) 12:59:48 145.825 MHz
JAS-1B 23 Oct 12:57:04 13:00:54 19° 56° (NE) 13:04:41 435.800 - 435.900 CW/SSB
Oscar 10/S400 23 Oct 13:10:57 13:24:05 19° 147° (SSE) 13:36:14 145.825 - 145.975 CW/USB, Beacon 145.810 USB
KITSAT 1 23 Oct 13:18:27 13:26:08 51° 114° (ESE) 13:33:51 435.175 FM
FUNcube-1 23 Oct 13:19:56 13:23:13 22° 296° (WNW) 13:26:27 145.950 - 145.970 MHz USB
Oscar 16 23 Oct 13:24:31 13:29:01 31° 64° (ENE) 13:33:31 437.025 USB, Beacon 2401.1428
AO-Echo 23 Oct 13:33:28 13:36:59 20° 59° (ENE) 13:40:34 ?
Uribyol 2 23 Oct 13:42:00 13:45:54 22° 60° (ENE) 13:49:49 436.500 FM
AO-7 23 Oct 13:45:17 13:45:51 10° 29° (NNE) 13:46:25 29.400 - 29.500 MHz
ITAMSAT 1 23 Oct 13:47:30 13:51:30 23° 60° (ENE) 13:55:30 435.822 SSB
Gurwin Techsat 1B 23 Oct 13:59:07 14:02:20 17° 57° (ENE) 14:05:33 435.225 FM
Sapphire 23 Oct 14:10:45 14:16:14 86° 57° (ENE) 14:21:40 437.095 MHz 1200 baud AX-25 AFSK
TMSAT-1 23 Oct 14:11:31 14:14:37 16° 56° (NE) 14:17:43 436.925 FM
Oscar 19 23 Oct 14:17:25 14:22:35 84° 74° (ENE) 14:27:46 437.125 CW, 437.150 USB
SO-50 23 Oct 14:20:50 14:25:11 49° 120° (ESE) 14:29:40 436.795 FM
AO-27 23 Oct 14:31:23 14:36:25 51° 69° (ENE) 14:41:29 436.795 MHz FM
PCSat 23 Oct 14:33:36 14:38:58 61° 242° (WSW) 14:44:17 145.825 MHz
ISS 23 Oct 14:33:48 14:36:54 36° 144° (SE) 14:40:00 145.800 FM
JAS-1B 23 Oct 14:45:04 14:51:02 75° 256° (WSW) 14:56:43 435.800 - 435.900 CW/SSB
Oscar 16 23 Oct 15:03:27 15:08:16 39° 263° (W) 15:13:06 437.025 USB, Beacon 2401.1428
AO-Echo 23 Oct 15:10:25 15:15:15 63° 259° (W) 15:20:18 ?
KITSAT 1 23 Oct 15:13:51 15:21:38 49° 316° (NW) 15:29:27 435.175 FM
Uribyol 2 23 Oct 15:19:47 15:24:56 61° 258° (WSW) 15:30:09 436.500 FM
Uosat F 23 Oct 15:20:21 15:21:01 10° 52° (NE) 15:21:41 435.120 FM
ITAMSAT 1 23 Oct 15:25:28 15:30:36 58° 259° (W) 15:35:46 435.822 SSB
AO-7 23 Oct 15:28:59 15:36:07 34° 54° (NE) 15:43:17 29.400 - 29.500 MHz
Gurwin Techsat 1B 23 Oct 15:36:17 15:41:36 86° 255° (WSW) 15:46:58 435.225 FM
TMSAT-1 23 Oct 15:48:30 15:53:49 89° 255° (WSW) 15:59:10 436.925 FM
Saudisat 1A 23 Oct 15:50:52 15:54:06 19° 33° (NNE) 15:57:20 436.775 MHz
UOSAT-12 23 Oct 15:52:45 15:57:05 40° 119° (ESE) 16:01:30 437.025 FM, 437.400 FM
Sapphire 23 Oct 15:55:45 15:58:55 16° 256° (WSW) 16:02:05 437.095 MHz 1200 baud AX-25 AFSK
Oscar 19 23 Oct 16:00:00 16:02:35 14° 272° (W) 16:05:11 437.125 CW, 437.150 USB
SO-50 23 Oct 16:01:59 16:05:58 29° 321° (NW) 16:10:05 436.795 FM
ISS 23 Oct 16:10:16 16:13:32 51° 342° (NNW) 16:16:49 145.800 FM
AO-27 23 Oct 16:12:03 16:16:12 24° 267° (W) 16:20:24 436.795 MHz FM
JAS-2 23 Oct 16:18:44 16:21:50 14° 47° (NE) 16:25:05 435.800 - 435.900 CW/SSB, 435.910 FM
Uosat F 23 Oct 16:53:51 16:58:48 62° 71° (ENE) 17:03:47 435.120 FM
KITSAT 1 23 Oct 17:13:14 17:19:14 22° 343° (NNW) 17:25:15 435.175 FM
AO-7 23 Oct 17:20:11 17:28:24 68° 255° (WSW) 17:36:41 29.400 - 29.500 MHz
Gurwin Techsat 1B 23 Oct 17:20:13 17:22:22 12° 274° (W) 17:24:32 435.225 FM
Hamsat 23 Oct 17:26:33 17:29:15 17° 62° (ENE) 17:31:57 145.90 MHz
Saudisat 1A 23 Oct 17:29:49 17:34:16 87° 234° (SW) 17:38:41 436.775 MHz
TMSAT-1 23 Oct 17:32:08 17:34:30 13° 273° (W) 17:36:52 436.925 FM
UOSAT-12 23 Oct 17:33:01 17:37:18 35° 318° (NW) 17:41:40 437.025 FM, 437.400 FM
SO-50 23 Oct 17:46:58 17:48:06 11° 345° (NNW) 17:49:15 436.795 FM
ISS 23 Oct 17:47:34 17:50:40 34° 2° (N) 17:53:46 145.800 FM
JAS-2 23 Oct 17:59:31 18:05:24 63° 69° (ENE) 18:12:07 435.800 - 435.900 CW/SSB, 435.910 FM
OPAL 23 Oct 18:27:57 18:32:22 31° 98° (E) 18:36:43 ?
Uosat F 23 Oct 18:34:32 18:38:01 19° 269° (W) 18:41:31 435.120 FM
Hamsat 23 Oct 19:00:42 19:04:49 54° 260° (W) 19:08:57 145.90 MHz
Saudisat 1A 23 Oct 19:11:42 19:13:07 11° 252° (WSW) 19:14:32 436.775 MHz
KITSAT 1 23 Oct 19:12:09 19:18:01 21° 14° (NNE) 19:23:52 435.175 FM
UOSAT-12 23 Oct 19:17:04 19:18:52 12° 341° (NNW) 19:20:40 437.025 FM, 437.400 FM
AO-7 23 Oct 19:18:50 19:22:46 14° 275° (W) 19:26:43 29.400 - 29.500 MHz
ISS 23 Oct 19:24:23 19:27:43 66° 22° (NNE) 19:31:03 145.800 FM
SO-67 23 Oct 19:35:40 19:38:58 46° 73° (ENE) 19:42:17 435.3500 MHz FM
HO-68 23 Oct 19:37:38 19:41:57 17° 47° (NE) 19:46:16 435.675 MHz FM
JAS-2 23 Oct 19:46:19 19:51:07 25° 272° (W) 19:56:25 435.800 - 435.900 CW/SSB, 435.910 FM
OPAL 23 Oct 20:06:44 20:11:18 37° 296° (WNW) 20:15:49 ?
STRAND 1 23 Oct 20:09:54 20:14:45 39° 98° (E) 20:19:33 ?
ISS 23 Oct 21:01:25 21:04:12 25° 220° (SW) 21:06:59 145.800 FM
KITSAT 1 23 Oct 21:08:07 21:15:48 44° 41° (NE) 21:23:26 435.175 FM
SO-50 23 Oct 21:09:31 21:13:18 22° 34° (NE) 21:17:06 436.795 FM
SO-67 23 Oct 21:10:48 21:12:13 12° 270° (W) 21:13:39 435.3500 MHz FM
Oscar 11 23 Oct 21:13:05 21:15:33 15° 60° (ENE) 21:18:00 145.825 FM, Beacon 2401.500 USB
RS-15 23 Oct 21:21:04 21:25:24 13° 94° (E) 21:29:43 29.354 - 29.394 USB, Beacon 29.352 USB
HO-68 23 Oct 21:21:20 21:28:26 69° 68° (ENE) 21:35:34 435.675 MHz FM
STRAND 1 23 Oct 21:49:19 21:53:49 31° 296° (WNW) 21:58:18 ?
ZACube-1 23 Oct 21:57:57 22:01:15 20° 63° (ENE) 22:04:32 437.345 MHz
UKube-1 23 Oct 22:04:20 22:08:33 52° 71° (ENE) 22:12:49 145.840 MHz, 145.915 MHz
UOSAT-12 23 Oct 22:39:57 22:43:19 19° 31° (NNE) 22:46:40 437.025 FM, 437.400 FM
FUNcube-1 23 Oct 22:41:38 22:46:03 49° 71° (ENE) 22:50:24 145.950 - 145.970 MHz USB
Oscar 11 23 Oct 22:46:55 22:51:13 67° 258° (WSW) 22:55:33 145.825 FM, Beacon 2401.500 USB
SO-50 23 Oct 22:49:35 22:54:26 82° 234° (SW) 22:59:19 436.795 FM
KITSAT 1 23 Oct 23:03:38 23:11:29 58° 244° (WSW) 23:19:18 435.175 FM
HO-68 23 Oct 23:10:55 23:16:43 26° 268° (W) 23:22:34 435.675 MHz FM
RS-15 23 Oct 23:24:31 23:35:11 61° 116° (ESE) 23:45:50 29.354 - 29.394 USB, Beacon 29.352 USB
ZACube-1 23 Oct 23:32:49 23:37:18 53° 260° (W) 23:41:45 437.345 MHz
UKube-1 23 Oct 23:42:09 23:45:04 17° 268° (W) 23:47:59 145.840 MHz, 145.915 MHz
FUNcube-1 24 Oct 00:19:18 00:22:40 20° 268° (W) 00:26:00 145.950 - 145.970 MHz USB
UOSAT-12 24 Oct 00:19:29 00:24:14 79° 52° (NE) 00:28:55 437.025 FM, 437.400 FM
MaSat-1 24 Oct 00:29:51 00:33:17 25° 111° (ESE) 00:36:27 437.345 MHz
SO-50 24 Oct 00:32:17 00:34:15 12° 252° (WSW) 00:36:14 436.795 FM
KITSAT 1 24 Oct 01:03:12 01:05:07 11° 264° (W) 01:07:02 435.175 FM
RS-15 24 Oct 01:37:19 01:47:53 51° 322° (NW) 01:58:34 29.354 - 29.394 USB, Beacon 29.352 USB
UOSAT-12 24 Oct 02:01:02 02:03:46 15° 250° (WSW) 02:06:29 437.025 FM, 437.400 FM
MaSat-1 24 Oct 02:05:12 02:08:52 33° 305° (NW) 02:12:12 437.345 MHz
JAS-1B 24 Oct 02:24:27 02:29:54 26° 94° (E) 02:36:03 435.800 - 435.900 CW/SSB
Oscar 19 24 Oct 02:26:45 02:30:50 24° 93° (E) 02:34:54 437.125 CW, 437.150 USB
AO-27 24 Oct 02:43:00 02:45:47 14° 88° (E) 02:48:34 436.795 MHz FM
Oscar 16 24 Oct 03:11:43 03:16:49 59° 101° (E) 03:21:51 437.025 USB, Beacon 2401.1428
AO-Echo 24 Oct 03:14:36 03:19:29 36° 96° (E) 03:24:21 ?
Uribyol 2 24 Oct 03:29:43 03:34:35 38° 97° (E) 03:39:24 436.500 FM
ITAMSAT 1 24 Oct 03:35:27 03:40:24 40° 98° (E) 03:45:17 435.822 SSB
PCSat 24 Oct 03:39:50 03:40:44 10° 101° (E) 03:41:38 145.825 MHz
